Location: Unspecified
(51.5147°N, 7.4673°E)
Time: 05:49:50
(UTC+01:00)

Tiangong - Visible Passes

Search period start: 17 January 2026 00:00
Search period end: 27 January 2026 00:00
Orbit: 378 x 394 km, 41.5° (Epoch: 16 January)

Date Brightness Start Highest point End Pass type
(mag) Time Alt. Az. Time Alt. Az. Time Alt. Az.
20 Jan 0.7 07:27:05 10° SSW 07:28:45 14° S 07:30:27 10° SE visible
21 Jan 0.7 06:28:23 10° SSW 06:29:41 12° SSE 06:31:00 10° SE visible
22 Jan 0.5 07:04:52 10° SW 07:06:39 14° S 07:08:25 10° SSE visible
23 Jan 0.4 06:07:10 13° S 06:07:30 13° S 06:09:10 10° SE visible
23 Jan 0.6 07:42:17 10° SW 07:43:34 12° SSW 07:44:50 10° SSE visible
24 Jan 0.5 06:42:48 10° SW 06:44:24 13° S 06:46:02 10° SSE visible
25 Jan 0.7 05:46:10 13° SSE 05:46:10 13° SSE 05:46:57 10° SSE visible
26 Jan 0.5 06:21:44 11° SSW 06:22:02 12° SSW 06:23:13 10° S visible
